Location: Hodgeman County Ambulance
(38.0844°N, 99.8949°W)
Time: 00:33:06
(UTC+00:00)

Okean O Rocket - Pass Details

Date: 27 October 2020
Orbit: 623 x 644 km, 98.2° (Epoch: 04 December)

Event Time Altitude Azimuth Distance (km) Brightness Sun altitude
Rises 12:12:19 0° 26° (NNE) 2,912 5.2 -10.2°
Reaches altitude 10° 12:14:49 10° 39° (NE) 2,003 4.6 -9.7°
Maximum altitude 12:18:28 26° 96° (E) 1,242 4.2 -9.0°
Drops below altitude 10° 12:22:06 10° 153° (SSE) 1,998 4.7 -8.3°
Sets 12:24:35 0° 166° (SSE) 2,903 5.4 -7.8°
